Weather at Aerodromo Goncalves Lobato (Viseu Airport)

Public forecast

Using degrees Celsius for public forecast. Weather courtesy of forecast.io.

Closest aviation weather report (METAR) to Aerodromo Goncalves Lobato (Viseu Airport)

Report is more than 6 hours old.

Closest report is Ovar Air Base, 36.2 nm (67.1 km) WNW. Retrieved 2022/09/17 19:00 UTC (14 days ago):

LPOV 171900Z 34006KT CAVOK 21/19 Q1009

Closest aviation forecast (TAF) to Aerodromo Goncalves Lobato (Viseu Airport)

Forecast is more than 12 hours old.

Closest forecast is Covilhã Hospital Helipad, 32.9 nm (61.0 km) SSE. Retrieved 2010/03/02 21:54 UTC (13 years ago):

TAF TLPCL 022154Z 0300/0400 10018KT 9999 SCT026 SCT300